Wind_Speed
61 46 32 26 24 22 20 22 22 26 24 14 19 35 31 40 43 41 44 42 42 39 41 38 36 34 34 34 36 37 37 39 40 40 40 42 44 45 45 44 44 45 49 53 53 53 55
54 41 33 26 26 26 23 18 12 14 13 17 19 9 22 27 39 38 39 38 38 34 37 35 33 35 37 37 37 38 37 36 37 40 41 42 43 42 43 41 40 43 47 50 50 52 58
48 43 38 29 29 21 18 19 15 8 11 21 11 9 9 29 27 36 33 35 31 33 28 27 29 31 31 33 32 32 32 33 35 39 40 40 41 40 41 41 41 43 45 47 50 54 55
47 39 41 36 31 23 18 5 1 2 5 14 9 10 10 17 18 29 33 28 28 25 26 24 23 25 27 26 27 30 29 30 33 32 32 32 32 33 36 40 41 44 46 45 46 50 54
61 37 38 37 36 30 25 20 16 15 11 12 9 6 12 27 27 24 27 26 25 20 18 21 22 23 22 22 22 22 21 22 23 23 25 29 32 34 37 37 40 43 46 49 52 54 58
85 49 35 35 31 28 36 29 24 15 19 15 8 7 7 25 38 22 27 28 27 31 26 22 19 17 16 13 12 12 15 17 19 24 27 29 31 34 34 37 40 43 48 47 46 46 47
83 78 46 34 35 22 24 21 19 14 6 6 6 8 14 31 40 29 27 28 32 36 28 20 14 10 8 6 7 9 10 14 19 24 28 30 33 31 33 36 34 15 7 16 24 25 20
78 83 80 40 36 34 29 26 22 13 7 7 17 29 37 33 30 39 23 25 26 24 19 15 11 10 8 6 6 6 11 16 22 26 29 30 28 26 12 8 4 6 11 17 20 16 8
76 73 79 72 59 54 54 48 41 37 31 25 30 40 38 28 28 36 30 30 27 22 19 15 13 11 11 10 2 5 4 7 8 13 11 11 14 14 12 4 6 12 14 15 11 10 6
78 72 71 72 60 54 52 53 54 49 50 36 39 37 35 36 36 36 31 27 24 21 18 16 15 15 13 6 7 10 12 13 16 17 18 15 13 11 10 12 10 14 15 17 18 13 15
76 74 67 65 66 62 54 46 48 48 48 47 44 43 41 37 33 31 28 24 22 20 18 17 15 15 12 15 12 14 12 13 10 10 11 11 11 12 11 11 9 8 7 15 14 14 12
69 71 69 64 58 56 55 52 50 47 46 41 39 36 33 31 29 25 22 19 18 16 14 18 17 14 19 18 16 9 6 5 7 7 8 8 10 6 16 11 13 13 18 15 11 12 14
64 65 66 65 61 54 50 52 46 44 41 39 36 34 32 28 25 22 21 19 15 14 21 17 15 15 21 18 10 6 7 7 7 7 8 9 9 10 14 15 17 15 20 19 19 15 14
57 61 62 61 61 58 54 52 52 52 51 50 48 43 37 34 30 26 21 18 16 15 14 13 12 15 19 15 5 5 7 9 9 9 10 9 7 12 10 15 15 17 18 20 17 21 19
51 55 57 58 57 55 54 49 45 46 46 44 44 43 39 32 28 26 22 19 18 18 16 14 15 16 17 9 5 7 8 7 9 10 7 6 9 12 12 11 12 15 16 14 15 18 22
44 47 49 53 53 53 53 50 47 42 39 37 36 39 38 36 31 26 26 25 24 22 24 22 17 15 13 5 4 7 6 9 9 12 16 13 12 15 21 19 15 17 17 11 14 16 18
37 40 43 44 48 50 50 50 48 45 41 37 36 36 37 36 32 29 22 24 25 25 25 23 21 18 13 9 10 10 11 14 14 15 17 15 14 14 18 21 16 15 20 19 17 17 22
31 33 36 39 41 44 45 45 46 45 44 43 40 38 37 36 34 32 27 25 24 26 23 20 17 16 15 14 15 16 19 17 14 12 11 11 11 12 13 13 13 18 19 19 17 16 20
24 26 28 31 35 38 39 41 42 43 42 43 44 45 42 38 35 31 29 28 28 27 25 22 21 20 18 18 22 23 13 9 9 11 11 12 12 15 16 13 14 12 16 19 18 15 10
24 19 21 23 26 29 31 35 37 38 39 39 39 40 43 43 40 33 30 35 36 36 32 24 21 19 18 22 19 11 6 9 11 10 11 14 13 19 21 25 19 11 13 16 17 20 21
25 21 15 17 20 20 24 27 31 33 34 35 35 34 35 37 40 40 34 33 36 33 28 23 21 21 20 14 6 2 4 8 11 10 12 17 20 19 22 25 25 25 24 24 24 22 18
21 25 19 12 12 14 16 20 22 25 27 29 30 30 29 29 31 34 35 30 26 24 22 18 16 15 12 9 4 6 7 9 15 18 18 17 17 17 18 19 20 20 20 19 19 19 18
20 19 23 19 9 8 10 12 14 17 20 22 24 25 25 26 25 25 26 26 25 22 16 15 17 13 10 6 3 8 10 12 13 13 12 12 11 11 13 14 14 15 15 15 16 16 16
16 17 15 18 17 8 6 5 8 9 13 15 16 17 19 19 20 20 19 19 19 18 16 16 15 14 13 10 9 8 9 9 9 9 10 10 10 10 10 9 9 9 10 10 11 11 11
17 15 16 13 13 16 9 7 3 3 5 6 8 10 11 11 12 13 13 13 13 14 13 12 11 10 11 11 10 9 10 10 10 10 10 11 11 10 9 8 8 7 5 6 7 6 6
20 18 15 16 12 12 14 11 10 7 6 3 1 2 2 4 5 6 6 7 7 7 7 8 9 8 8 8 8 7 7 7 8 9 9 10 10 11 12 12 10 10 8 6 4 2 1
24 21 18 15 15 14 10 10 10 10 11 11 8 5 5 5 5 3 1 0 0 0 1 2 2 4 5 6 7 8 9 8 8 8 9 9 10 11 12 12 11 11 10 10 10 7 7
27 28 22 19 19 17 16 12 9 10 12 14 11 11 12 12 11 12 10 8 7 6 6 6 5 7 6 6 6 6 7 8 10 11 12 13 13 13 12 13 13 13 12 12 12 11 11
25 29 26 25 21 21 21 19 13 11 9 11 15 13 17 16 18 18 17 18 16 15 13 13 12 12 12 12 13 13 13 12 13 13 14 14 15 16 16 17 16 16 15 15 15 16 15
Wind_Direction
344 337 335 323 308 302 296 288 267 256 242 236 249 254 244 218 215 224 223 222 223 227 232 236 239 243 247 252 260 262 260 260 263 267 271 271 270 272 272 270 269 269 265 262 262 263 258
350 360 359 337 308 299 292 289 281 253 215 225 216 246 242 221 210 209 216 216 218 203 228 233 239 250 257 258 259 261 259 258 261 266 271 273 275 275 273 272 272 270 267 266 266 263 260
355 10 14 11 5 352 299 276 274 246 200 212 236 213 202 233 203 199 203 208 213 221 230 233 241 246 250 252 254 254 256 259 266 268 273 275 277 276 275 274 271 269 266 266 264 262 259
7 16 18 15 17 22 32 62 313 207 191 205 219 211 218 191 201 193 193 192 201 208 219 225 231 237 237 240 245 251 260 266 268 272 277 278 275 274 270 271 270 275 272 268 274 272 267
20 16 20 29 41 54 55 58 78 118 137 156 154 190 191 161 185 174 182 186 194 197 200 204 215 222 231 238 247 258 266 271 272 273 274 272 272 272 273 273 273 273 276 277 276 274 270
31 25 37 42 49 57 52 48 59 76 68 102 151 208 227 170 155 151 161 170 177 170 187 198 199 215 229 240 249 261 266 268 269 274 273 271 270 273 274 274 279 283 283 282 280 280 277
32 39 38 45 54 50 42 45 52 66 68 27 351 105 144 146 137 146 160 162 172 185 191 197 206 195 199 215 239 247 256 272 273 274 272 271 274 277 279 284 284 278 293 319 311 312 297
35 41 48 53 57 53 54 51 61 82 64 38 71 117 115 115 141 149 154 154 155 163 182 178 165 152 173 193 191 244 279 281 278 276 276 280 284 283 272 145 104 30 359 350 326 324 350
36 40 50 59 68 65 65 67 73 75 78 82 103 117 112 115 122 128 135 131 133 131 136 142 154 179 166 158 205 284 338 8 36 63 72 95 92 98 105 66 2 345 332 328 352 334 335
39 42 45 58 67 70 68 70 70 75 81 96 115 110 112 119 106 108 113 120 125 131 141 142 145 149 145 162 135 83 70 76 83 81 88 80 74 61 32 2 360 339 346 341 350 318 327
38 43 47 50 59 66 68 70 71 67 74 80 87 94 100 104 110 112 118 122 130 134 142 139 141 146 150 134 114 88 78 59 60 70 73 60 30 21 29 24 358 344 342 342 353 2 13
41 41 47 52 53 59 64 69 74 77 74 72 83 86 93 99 104 112 118 123 126 133 139 141 150 155 140 122 111 87 67 48 71 68 38 30 1 13 5 352 353 344 348 358 9 10 13
42 43 43 50 56 60 62 68 73 76 75 76 81 78 81 84 94 95 97 107 123 133 134 135 145 145 137 134 117 67 53 54 49 57 20 8 357 360 3 358 352 13 8 7 15 6 5
41 44 45 46 50 56 64 72 74 76 80 81 82 83 83 86 90 93 96 105 112 116 123 131 136 141 152 151 127 53 58 46 34 27 35 26 4 351 345 357 345 349 352 360 9 18 24
45 41 44 46 48 51 55 64 73 77 78 79 79 79 77 80 88 91 93 98 99 104 111 121 127 138 156 159 79 75 56 42 51 61 52 19 6 359 2 356 352 7 10 8 33 40 47
43 48 44 47 48 50 53 55 58 66 73 77 77 76 75 76 81 88 83 85 91 97 97 100 120 121 139 126 95 92 79 77 69 75 68 58 43 32 51 43 39 39 32 21 32 46 55
38 44 50 49 49 50 52 55 58 60 60 63 67 70 72 74 78 82 85 82 86 89 94 98 103 111 116 125 110 107 104 101 85 70 65 67 68 50 34 46 48 48 42 50 51 68 73
34 41 45 50 52 52 52 54 55 59 64 64 63 67 70 74 77 79 84 87 85 87 90 97 107 107 117 113 117 125 116 105 93 75 58 44 37 52 51 42 37 37 39 53 72 73 67
25 33 43 43 50 52 54 55 55 58 58 63 67 69 70 72 79 85 87 87 88 90 92 95 96 100 107 118 126 130 119 90 58 47 46 55 48 45 57 62 56 38 54 56 79 84 79
13 21 32 47 43 52 53 54 58 58 60 59 61 67 71 74 78 84 94 101 103 106 104 95 95 101 114 133 131 114 96 45 20 29 50 50 60 69 68 72 77 79 72 78 74 75 74
11 10 21 31 44 43 50 54 56 56 57 61 62 62 65 72 75 79 88 105 116 125 122 117 120 123 122 134 146 96 22 6 8 36 61 77 87 84 86 82 83 82 79 80 81 83 84
14 6 8 16 32 42 42 46 57 60 59 60 59 64 66 67 72 76 82 93 114 117 120 119 124 135 148 141 76 26 2 68 92 92 92 91 92 88 81 80 79 77 75 76 78 81 85
359 16 10 0 6 18 36 43 49 58 62 60 58 62 65 67 67 69 76 84 92 110 119 104 100 114 150 167 44 85 91 88 82 82 83 85 81 72 65 68 74 76 73 73 75 72 72
332 349 3 6 351 341 340 21 34 43 58 63 62 61 61 67 69 70 69 69 74 84 90 92 93 97 101 107 98 84 73 67 65 56 48 44 44 45 41 43 46 62 71 75 78 80 76
324 327 338 353 0 348 327 309 294 345 20 65 69 67 62 64 64 74 75 72 69 62 62 67 72 78 81 77 73 65 60 54 51 46 36 26 24 25 22 29 30 30 40 78 85 87 99
318 321 324 332 338 357 355 325 290 270 276 292 9 84 59 28 59 62 74 78 73 67 56 37 37 38 38 42 44 45 41 34 31 27 23 19 13 8 10 11 10 8 11 9 17 35 42
306 310 317 320 320 325 341 343 314 277 269 262 253 247 263 261 259 267 268 353 10 94 51 38 17 358 4 13 10 6 5 4 4 4 357 354 355 354 353 354 353 355 352 345 339 330 311
300 301 303 311 313 313 310 325 329 319 286 276 268 253 251 249 251 254 260 262 259 259 259 263 267 275 267 280 299 306 315 323 327 332 335 337 337 334 332 332 333 335 331 330 328 323 314
283 290 294 293 298 305 306 306 311 310 308 295 287 272 256 257 258 258 258 258 257 255 257 258 261 259 265 274 279 281 286 290 296 300 308 309 312 316 321 316 318 318 320 319 318 316 312
Height
5582 5565 5556 5551 5548 5547 5546 5547 5550 5554 5559 5565 5570 5577 5585 5593 5602 5614 5623 5635 5645 5652 5659 5669 5676 5680 5685 5690 5694 5697 5699 5701 5703 5703 5703 5704 5705 5706 5706 5706 5706 5707 5706 5706 5706 5704 5701
5577 5563 5551 5544 5540 5538 5538 5541 5543 5547 5553 5560 5565 5570 5577 5588 5596 5607 5618 5627 5637 5648 5653 5663 5669 5675 5680 5685 5687 5691 5693 5694 5696 5695 5695 5695 5696 5696 5697 5696 5697 5697 5696 5694 5693 5689 5690
5576 5563 5552 5544 5538 5532 5530 5533 5537 5543 5549 5556 5559 5567 5575 5584 5592 5602 5612 5621 5633 5642 5651 5658 5664 5669 5673 5678 5682 5684 5685 5687 5687 5687 5688 5688 5688 5688 5688 5687 5686 5685 5687 5684 5678 5674 5675
5578 5564 5555 5545 5538 5532 5530 5530 5535 5540 5548 5555 5561 5566 5572 5579 5590 5600 5610 5620 5629 5638 5646 5653 5659 5664 5668 5673 5676 5679 5678 5679 5682 5681 5681 5681 5681 5680 5678 5677 5676 5675 5674 5672 5665 5659 5656
5582 5566 5559 5551 5543 5540 5538 5538 5539 5543 5548 5553 5559 5564 5568 5575 5590 5598 5607 5617 5627 5636 5642 5649 5655 5661 5666 5670 5672 5673 5674 5676 5676 5675 5674 5673 5672 5671 5671 5669 5668 5665 5662 5657 5652 5644 5642
5593 5572 5564 5559 5553 5551 5549 5549 5550 5551 5555 5558 5561 5563 5567 5572 5585 5598 5607 5616 5626 5634 5641 5647 5654 5661 5665 5667 5668 5669 5670 5670 5669 5668 5668 5666 5665 5664 5663 5661 5660 5656 5652 5646 5638 5632 5630
5609 5585 5572 5569 5563 5560 5560 5559 5559 5560 5560 5561 5561 5562 5567 5575 5586 5600 5608 5617 5627 5635 5641 5648 5654 5658 5662 5664 5667 5667 5667 5666 5664 5663 5661 5659 5658 5657 5657 5656 5653 5650 5647 5641 5631 5626 5622
5625 5605 5587 5578 5574 5569 5568 5566 5564 5565 5565 5565 5565 5569 5575 5585 5592 5601 5611 5619 5627 5637 5643 5650 5654 5657 5661 5664 5665 5665 5665 5664 5660 5657 5653 5652 5652 5652 5650 5652 5651 5648 5644 5639 5633 5627 5619
5640 5626 5604 5592 5586 5582 5582 5580 5578 5575 5573 5572 5574 5581 5589 5596 5601 5606 5616 5624 5631 5638 5645 5651 5654 5658 5661 5664 5664 5664 5663 5660 5657 5654 5651 5651 5651 5652 5653 5653 5650 5647 5643 5639 5635 5629 5623
5657 5642 5627 5608 5602 5597 5595 5596 5594 5592 5589 5586 5590 5594 5599 5605 5612 5617 5624 5630 5636 5642 5648 5653 5656 5659 5660 5663 5664 5663 5662 5662 5660 5658 5656 5656 5656 5655 5654 5652 5648 5644 5641 5636 5632 5628 5623
5673 5658 5645 5633 5621 5614 5611 5608 5606 5608 5606 5605 5607 5609 5612 5616 5621 5626 5633 5637 5641 5646 5651 5655 5656 5659 5661 5664 5665 5665 5665 5665 5664 5663 5663 5661 5659 5657 5655 5651 5647 5643 5639 5635 5630 5625 5620
5687 5676 5662 5651 5643 5633 5627 5624 5621 5618 5621 5623 5623 5624 5626 5629 5632 5636 5640 5643 5647 5652 5652 5655 5658 5660 5663 5664 5666 5668 5668 5668 5667 5666 5665 5663 5661 5658 5655 5652 5647 5644 5640 5633 5628 5624 5620
5700 5690 5680 5667 5658 5653 5645 5639 5636 5633 5631 5632 5635 5637 5638 5640 5642 5645 5647 5650 5653 5654 5657 5659 5660 5662 5666 5668 5670 5671 5670 5669 5670 5670 5667 5664 5660 5657 5654 5651 5648 5644 5640 5634 5627 5624 5621
5714 5704 5695 5686 5676 5667 5662 5656 5652 5649 5646 5645 5644 5646 5649 5649 5651 5653 5655 5657 5658 5659 5660 5662 5664 5667 5669 5672 5673 5673 5672 5671 5670 5669 5667 5664 5662 5660 5656 5654 5650 5645 5641 5635 5631 5627 5623
5724 5717 5707 5699 5692 5684 5677 5670 5666 5662 5660 5659 5658 5657 5657 5659 5659 5661 5662 5662 5662 5663 5664 5666 5668 5670 5673 5675 5676 5675 5674 5674 5672 5672 5670 5668 5666 5664 5661 5657 5652 5646 5643 5640 5637 5633 5629
5733 5725 5719 5711 5704 5699 5692 5686 5680 5676 5672 5669 5671 5667 5666 5666 5666 5668 5669 5668 5668 5668 5669 5670 5672 5675 5678 5679 5679 5678 5677 5676 5675 5674 5674 5673 5670 5667 5665 5660 5654 5651 5649 5645 5641 5637 5635
5742 5735 5727 5721 5716 5711 5705 5699 5694 5689 5685 5681 5678 5675 5674 5673 5673 5673 5675 5677 5675 5675 5675 5676 5678 5680 5682 5681 5681 5680 5681 5681 5680 5679 5678 5677 5675 5673 5667 5665 5659 5658 5654 5649 5647 5644 5642
5749 5743 5737 5730 5726 5720 5715 5710 5707 5702 5696 5694 5690 5685 5681 5679 5679 5678 5680 5683 5681 5682 5681 5682 5683 5684 5684 5684 5685 5685 5686 5686 5685 5685 5684 5681 5678 5676 5673 5668 5664 5660 5658 5655 5653 5652 5649
5755 5748 5743 5739 5734 5728 5723 5720 5717 5712 5711 5706 5702 5697 5691 5687 5686 5685 5687 5688 5688 5689 5688 5688 5689 5690 5690 5690 5691 5691 5690 5690 5690 5689 5688 5684 5681 5678 5676 5674 5668 5665 5663 5659 5659 5657 5657
5758 5753 5749 5743 5741 5735 5730 5727 5724 5722 5718 5717 5714 5709 5704 5700 5695 5694 5694 5693 5694 5696 5697 5697 5697 5697 5698 5697 5697 5696 5695 5695 5693 5691 5689 5686 5684 5682 5680 5676 5674 5672 5669 5667 5665 5664 5663
5758 5756 5753 5749 5745 5742 5738 5734 5730 5728 5726 5723 5720 5720 5716 5711 5707 5704 5703 5702 5701 5701 5703 5704 5704 5703 5703 5703 5702 5701 5700 5698 5696 5693 5692 5690 5688 5687 5685 5682 5681 5679 5677 5674 5672 5670 5670
5760 5757 5755 5752 5750 5746 5744 5741 5735 5733 5731 5730 5727 5724 5723 5722 5718 5715 5714 5712 5710 5710 5709 5709 5710 5708 5707 5707 5706 5705 5704 5702 5700 5698 5696 5694 5693 5691 5689 5687 5685 5684 5682 5681 5679 5677 5676
5760 5757 5756 5753 5751 5748 5745 5743 5740 5737 5734 5734 5734 5730 5728 5727 5726 5725 5722 5720 5719 5717 5716 5714 5712 5711 5711 5711 5710 5709 5707 5705 5704 5703 5702 5700 5698 5695 5693 5691 5690 5689 5687 5685 5683 5681 5680
5761 5755 5754 5754 5750 5748 5747 5745 5742 5741 5738 5736 5735 5735 5733 5731 5729 5728 5728 5727 5726 5724 5722 5719 5717 5716 5715 5714 5713 5712 5711 5708 5707 5705 5704 5703 5701 5699 5697 5694 5693 5691 5689 5688 5686 5684 5683
5761 5758 5753 5751 5750 5746 5744 5745 5742 5740 5739 5736 5736 5736 5735 5733 5733 5731 5729 5728 5728 5727 5726 5724 5722 5720 5718 5716 5715 5713 5712 5711 5709 5707 5704 5702 5701 5699 5698 5696 5696 5693 5692 5691 5689 5688 5686
5758 5756 5753 5750 5748 5748 5744 5742 5741 5739 5738 5736 5736 5735 5734 5734 5734 5733 5732 5730 5728 5727 5727 5726 5724 5723 5721 5720 5717 5715 5713 5711 5709 5707 5705 5703 5701 5700 5697 5695 5694 5693 5692 5691 5690 5689 5687
5753 5752 5750 5747 5746 5745 5744 5739 5736 5735 5736 5735 5733 5733 5733 5732 5732 5731 5731 5730 5729 5727 5725 5724 5724 5723 5721 5719 5718 5717 5715 5713 5710 5708 5705 5703 5701 5699 5697 5695 5694 5692 5691 5689 5689 5690 5685
5747 5747 5746 5745 5742 5740 5739 5740 5738 5734 5731 5731 5731 5728 5728 5727 5729 5729 5729 5729 5727 5726 5724 5724 5723 5721 5719 5718 5717 5715 5713 5712 5710 5708 5706 5704 5701 5698 5696 5694 5693 5690 5690 5688 5687 5685 5683
5739 5739 5739 5739 5737 5735 5732 5732 5732 5731 5730 5728 5727 5725 5724 5724 5725 5724 5724 5723 5723 5722 5722 5720 5720 5718 5717 5716 5714 5712 5710 5708 5707 5705 5703 5702 5700 5698 5696 5693 5690 5688 5686 5684 5682 5680 5679